#timestamp,LO_Frequency,Hit 
1505149215.3,286047000.4,N
1505149235.2,286047000.6,N
1505149255.0,286046999.6,N
1505149255.9,286046999.6,N
1505149275.7,286047000.0,N
1505149295.6,286047004.1,N
1505149315.4,286047003.7,N
1505149335.2,286047003.0,N
1505149355.1,286047005.1,N
1505149356.0,286047005.1,N
1505149375.8,286047005.4,N
1505149395.6,286047005.1,N
1505149415.5,286047007.2,N
1505149435.3,286047006.8,N
1505149455.1,286047006.0,N
1505149475.9,286047005.4,N
1505149495.7,286047005.3,N
1505149515.5,286047004.7,N
1505149535.4,286047005.1,N
1505149555.2,286047001.8,N
1505149575.0,286047003.2,N
1505149575.9,286047003.2,N
1505149595.7,286047001.5,N
1505149615.6,286046999.7,N
1505149635.4,286047003.9,N
1505149655.2,286047004.1,N
1505149675.1,286047002.0,N
1505149676.0,286047002.0,N
1505149695.8,286047002.1,N
1505149715.6,286047003.8,N
1505149735.5,286047002.9,N
1505149755.3,286047002.5,N
1505149775.1,286047002.3,N
1505149795.9,286047000.1,N
1505149815.7,286047004.1,N
1505149835.5,286047002.9,N
1505149855.4,286047004.2,N
1505149875.2,286047001.8,N
1505149895.0,286047003.2,N
1505149895.9,286047003.2,N
1505149915.8,286047007.1,P
1505149935.6,286046998.6,N
1505149955.4,286046998.1,N
1505149975.3,286046999.8,N
1505149995.1,286047000.0,N
1505149996.0,286047000.0,N
1505150015.8,286047000.9,N
1505150035.7,286046998.2,N
1505150055.5,286046999.3,N
1505150075.3,286046997.4,N
1505150095.1,286046997.6,N
1505150115.9,286046997.4,N
1505150135.7,286047001.1,N
1505150155.5,286047000.8,N
1505150175.4,286046999.6,N
1505150195.2,286046999.0,N
1505150215.0,286046996.5,N
1505150215.9,286046996.5,N
1505150235.8,286046993.4,N
1505150255.6,286046994.1,N
1505150275.4,286046995.6,N
1505150295.3,286046999.4,N
1505150315.1,286046998.1,N
1505150316.0,286046998.1,N
1505150335.8,286047002.4,N
1505150355.7,286047002.7,N
1505150375.5,286047003.5,N
1505150395.3,286047005.9,N
1505150415.1,286047005.1,N
1505150435.9,286047005.9,N
1505150455.7,286047005.2,N
1505150475.5,286047005.3,N
1505150495.4,286047004.4,N
1505150515.2,286047003.7,N
1505150535.0,286047003.2,N
1505150535.9,286047003.2,N
1505150555.8,286047004.7,N
1505150575.6,286047005.8,N
1505150595.4,286047005.0,N
1505150615.3,286047003.8,N
1505150635.1,286047005.7,N
1505150636.0,286047005.7,N
1505150655.8,286047006.1,N
1505150675.7,286047005.2,N
1505150695.5,286047003.5,N
1505150715.3,286047006.0,N
1505150735.1,286047005.7,N
1505150755.9,286047006.6,N
1505150775.7,286047009.5,N
1505150795.6,286047010.1,P
1505150815.4,286047006.5,N
1505150835.2,286047008.7,P
1505150855.1,286047007.4,P
1505150856.0,286047007.4,P
1505150875.8,286047000.4,P
1505150895.6,286047000.7,N
1505150915.5,286047000.6,N
1505150935.3,286046999.9,N
1505150955.1,286047001.2,N
1505150975.8,286046996.7,N
1505150995.7,286046996.4,N
1505151015.5,286046998.5,N
1505151035.3,286047001.8,N
1505151055.2,286047000.5,N
1505151075.9,286046996.9,N
1505151095.7,286046994.2,N
1505151115.6,286046992.2,N
1505151135.4,286046992.6,N
1505151155.2,286046996.3,N
1505151175.1,286046997.3,N
1505151176.0,286046997.3,N
1505151195.8,286046998.8,N
1505151215.6,286047002.9,N
1505151235.5,286047023.5,P
1505151255.3,286047015.0,N
1505151275.1,286047012.8,N
1505151295.9,286047014.1,N
1505151315.7,286047017.4,N
1505151335.5,286047022.0,P
1505151355.4,286047003.8,N
1505151375.2,286047003.8,N
1505151395.0,286047007.0,N
1505151395.9,286047007.0,N
1505151415.8,286047006.3,N
1505151435.6,286047004.6,N
1505151455.4,286047009.0,N
1505151475.2,286047012.1,N
1505151495.1,286047014.0,N
1505151496.0,286047014.0,N
1505151515.8,286047008.1,N
1505151535.6,286047010.2,N
1505151555.5,286047010.9,N
1505151575.3,286047014.1,N
1505151595.1,286047018.4,P
1505151615.9,286047005.1,N
1505151635.7,286047003.3,N
1505151655.5,286046997.1,N
1505151675.4,286047004.0,N
1505151695.2,286047008.1,N
1505151715.0,286047012.4,N
1505151715.9,286047012.4,N
1505151735.8,286047015.4,N
1505151755.6,286047015.5,N
1505151775.4,286047010.6,N
1505151795.3,286047004.5,N
1505151815.1,286047003.2,N
1505151816.0,286047003.2,N
1505151835.8,286047005.1,N
1505151855.7,286047004.2,N
1505151875.5,286047008.0,N
1505151895.3,286047015.1,N
1505151915.2,286047017.9,P
1505151935.9,286047012.7,N
1505151955.7,286047009.2,N
1505151975.5,286046999.8,N
1505151995.4,286047001.4,N
1505152015.2,286047001.9,N
1505152035.0,286047003.1,N
1505152035.9,286047003.1,N
1505152055.8,286047007.1,N
1505152075.6,286047007.6,N
1505152095.4,286047004.6,N
1505152115.3,286047003.0,N
1505152135.1,286047004.9,N
1505152136.0,286047004.9,N
1505152155.8,286047006.4,N
1505152175.7,286047004.0,N
1505152195.5,286047001.7,N
1505152215.3,286046999.4,N
1505152235.2,286047001.2,N
1505152255.9,286047000.6,N
1505152275.7,286046996.3,N
1505152295.5,286046996.1,N
1505152315.4,286046999.8,N
1505152335.2,286047004.1,N
1505152355.0,286047008.6,N
1505152355.9,286047008.6,N
1505152375.8,286047009.9,N
1505152395.6,286047008.2,N
1505152415.4,286047012.4,N
1505152435.3,286047008.7,N
1505152455.1,286047009.0,N
1505152456.0,286047009.0,N
1505152475.8,286047010.4,N
1505152495.7,286047011.9,N
1505152515.5,286047013.6,P
1505152535.3,286047008.1,N
1505152555.2,286047009.0,N
1505152575.0,286047007.4,N
1505152575.9,286047007.4,N
1505152595.7,286047003.0,N
1505152615.6,286047005.8,N
1505152635.4,286047006.7,N
1505152655.2,286047008.2,N
1505152675.1,286047012.1,P
1505152676.0,286047012.1,P
1505152695.8,286047005.5,N
1505152715.6,286047003.8,N
1505152735.5,286046999.7,N
1505152755.3,286046998.8,N
1505152775.1,286047001.0,N
1505152795.9,286047001.6,N
